LRIA Weather Reports


time (UTC)temp
F
wind
direction
speed
knots
gust
knots
rain 1hr
in
rain 24hr
in
rain mn
in
humidity
%
barometer
mb
20260906050439 61 310 9.6 0.0 0.00 0.00 0.00 83 1019.0
20260906044939 61 250 2.6 0.0 0.00 0.00 0.00 83 1018.0
20260906043428 59 240 4.3 0.0 0.00 0.00 0.00 88 1018.0
20260906041940 59 240 4.3 0.0 0.00 0.00 0.00 88 1018.0
20260906040343 59 240 4.3 0.0 0.00 0.00 0.00 88 1018.0
20260906034840 59 230 5.2 0.0 0.00 0.00 0.00 88 1017.0
20260906033440 59 230 5.2 0.0 0.00 0.00 0.00 88 1017.0
20260906031939 59 230 4.3 0.0 0.00 0.00 0.00 88 1017.0
20260906030439 59 230 4.3 0.0 0.00 0.00 0.00 88 1017.0
20260906024850 59 230 2.6 0.0 0.00 0.00 0.00 88 1017.0
20260906023323 59 230 2.6 0.0 0.00 0.00 0.00 88 1017.0
20260906021830 61 220 1.7 0.0 0.00 0.00 0.00 83 1017.0
20260906020324 61 220 1.7 0.0 0.00 0.00 0.00 83 1017.0
20260906014824 61 240 2.6 0.0 0.00 0.00 0.00 88 1017.0
20260906013441 61 240 2.6 0.0 0.00 0.00 0.00 88 1017.0
20260906011823 61 190 4.3 0.0 0.00 0.00 0.00 88 1017.0
20260906010323 61 190 4.3 0.0 0.00 0.00 0.00 88 1017.0
20260906004940 61 230 4.3 0.0 0.00 0.00 0.00 88 1017.0
20260906003450 61 230 4.3 0.0 0.00 0.00 0.00 88 1017.0
20260906001940 61 220 4.3 0.0 0.00 0.00 0.00 88 1017.0
20260906000430 61 250 4.3 0.0 0.00 0.00 0.00 88 1017.0
20260905234833 61 250 4.3 0.0 0.00 0.00 0.00 88 1017.0
20260905233323 61 250 4.3 0.0 0.00 0.00 0.00 88 1017.0
20260905231940 63 240 4.3 0.0 0.00 0.00 0.00 83 1018.0
20260905230355 63 240 4.3 0.0 0.00 0.00 0.00 83 1018.0
20260905224941 63 240 5.2 0.0 0.00 0.00 0.00 83 1018.0
20260905223337 63 240 5.2 0.0 0.00 0.00 0.00 83 1018.0
20260905221925 61 240 5.2 0.0 0.00 0.00 0.00 88 1018.0
20260905220440 61 240 5.2 0.0 0.00 0.00 0.00 88
20260905214939 61 260 5.2 0.0 0.00 0.00 0.00 88 1017.0
20260905213323 61 260 5.2 0.0 0.00 0.00 0.00 88 1017.0
20260905211823 61 260 6.1 0.0 0.00 0.00 0.00 88 1017.0
20260905210323 61 260 6.1 0.0 0.00 0.00 0.00 88 1017.0
20260905204834 61 270 5.2 0.0 0.00 0.00 0.00 88 1017.0
20260905203323 61 270 5.2 0.0 0.00 0.00 0.00 88 1017.0
20260905201823 61 280 5.2 0.0 0.00 0.00 0.00 94 1016.0
20260905200440 61 280 5.2 0.0 0.00 0.00 0.00 94 1016.0
20260905194931 63 250 4.3 0.0 0.00 0.00 0.00 88 1017.0
20260905193323 63 250 4.3 0.0 0.00 0.00 0.00 88 1017.0
20260905191852 63 240 4.3 0.0 0.00 0.00 0.00 88 1017.0
20260905190324 63 240 4.3 0.0 0.00 0.00 0.00 88 1017.0
20260905184824 63 270 5.2 0.0 0.00 0.00 0.00 88 1017.0
20260905183328 63 270 5.2 0.0 0.00 0.00 0.00 88 1017.0
20260905181823 63 320 6.1 0.0 0.00 0.00 0.00 88 1016.0
20260905180323 63 320 6.1 0.0 0.00 0.00 0.00 88 1016.0
20260905173323 63 320 5.2 0.0 0.00 0.00 0.00 88 1016.0
20260905170323 72 320 7.8 0.0 0.00 0.00 0.00 50 1016.0
20260905164823 72 360 4.3 0.0 0.00 0.00 0.00 47 1015.0
20260905163324 72 360 4.3 0.0 0.00 0.00 0.00 47 1015.0
20260905161824 72 320 17.4 0.0 0.00 0.00 0.00 47 1015.0
20260905160324 72 320 17.4 0.0 0.00 0.00 0.00 47 1015.0
20260905154840 73 320 14.8 25.2 0.00 0.00 0.00 47 1014.0
20260905153323 73 320 14.8 25.2 0.00 0.00 0.00 47 1014.0
20260905151824 75 330 22.6 33.0 0.00 0.00 0.00 47 1013.0
20260905150324 75 330 22.6 33.0 0.00 0.00 0.00 47 1013.0
20260905144823 77 330 26.9 0.0 0.00 0.00 0.00 42 1012.0
20260905143323 77 330 26.9 0.0 0.00 0.00 0.00 42 1012.0
20260905134938 91 250 5.2 0.0 0.00 0.00 0.00 28 1011.0
20260905133323 91 250 5.2 0.0 0.00 0.00 0.00 28 1011.0
20260905131826 91 270 6.1 0.0 0.00 0.00 0.00 28 1011.0
20260905130345 91 270 6.1 0.0 0.00 0.00 0.00 28 1011.0
20260905124821 90 6.1 0.0 0.00 0.00 0.00 27 1012.0
20260905123324 90 6.1 0.0 0.00 0.00 0.00 27 1012.0
20260905121851 91 260 6.1 0.0 0.00 0.00 0.00 28 1012.0
20260905120324 91 260 6.1 0.0 0.00 0.00 0.00 28 1012.0
20260905114823 90 210 7.0 0.0 0.00 0.00 0.00 29 1012.0
20260905113323 90 210 7.0 0.0 0.00 0.00 0.00 29 1012.0
20260905111842 88 190 6.1 0.0 0.00 0.00 0.00 31 1012.0
20260905110323 88 190 6.1 0.0 0.00 0.00 0.00 31 1012.0
20260905104824 88 190 5.2 0.0 0.00 0.00 0.00 31 1013.0
20260905103323 88 190 5.2 0.0 0.00 0.00 0.00 31 1013.0
20260905101823 88 200 7.0 0.0 0.00 0.00 0.00 31 1013.0
20260905100324 88 200 7.0 0.0 0.00 0.00 0.00 31 1013.0
20260905094940 88 220 7.0 0.0 0.00 0.00 0.00 33 1013.0
20260905093323 88 220 7.0 0.0 0.00 0.00 0.00 33 1013.0
20260905091823 86 210 7.0 0.0 0.00 0.00 0.00 33 1013.0
20260905090323 86 210 7.0 0.0 0.00 0.00 0.00 33 1013.0
20260905084823 84 240 7.0 0.0 0.00 0.00 0.00 35 1013.0
20260905083323 84 240 7.0 0.0 0.00 0.00 0.00 35 1013.0
20260905081823 82 240 6.1 0.0 0.00 0.00 0.00 37 1014.0
20260905080324 82 240 6.1 0.0 0.00 0.00 0.00 37 1014.0
20260905074823 81 190 5.2 0.0 0.00 0.00 0.00 42 1014.0
20260905073332 81 190 5.2 0.0 0.00 0.00 0.00 42 1014.0
20260905071824 79 190 5.2 0.0 0.00 0.00 0.00 45 1014.0
20260905070323 79 190 5.2 0.0 0.00 0.00 0.00 45 1014.0
20260905064824 75 210 6.1 0.0 0.00 0.00 0.00 47 1014.0
20260905063324 75 210 6.1 0.0 0.00 0.00 0.00 47 1014.0
20260905061824 72 210 5.2 0.0 0.00 0.00 0.00 53 1014.0
20260905060324 72 210 5.2 0.0 0.00 0.00 0.00 53 1014.0
20260905054824 70 200 5.2 0.0 0.00 0.00 0.00 57 1014.0
20260905053324 70 200 5.2 0.0 0.00 0.00 0.00 57 1014.0
20260905051823 66 1.7 0.0 0.00 0.00 0.00 64 1014.0